Location: Niverville
(49.6028°N, 97.0419°W)
Time: 20:22:48
(UTC-06:00)

Amateur Radio Satellites - All Passes

Search period start: 19 December 2014 19:52
Search period end: 20 December 2014 19:52
Location: Niverville, 49.6028°N, 97.0419°W

Satellite Date Start Highest point End Downlink Frequencies (MHz)
Time Altitude Azimuth
BEESAT 3 19 Dec 19:52:40 19:54:56 14° 20° (NNE) 19:57:13 437.485
AIST 2 19 Dec 19:53:17 19:54:56 12° 12° (NNE) 19:56:34 435.215
Oscar 11 19 Dec 19:56:02 19:58:58 18° 60° (ENE) 20:01:55 145.826/435.025
PCSat 19 Dec 20:01:49 20:04:36 14° 14° (NNE) 20:07:23 145.827
UKube-1 19 Dec 20:03:57 20:06:50 18° 59° (ENE) 20:09:44 .
ISS 19 Dec 20:08:30 20:11:39 43° 209° (SSW) 20:14:46 145.825
CUBEBUG 2 19 Dec 20:08:59 20:11:29 16° 58° (ENE) 20:14:01 437.445
DANDE 19 Dec 20:14:06 20:21:04 51° 71° (ENE) 20:29:18 436.750
AAUSAT CUBESAT 2 19 Dec 20:16:59 20:21:00 45° 70° (ENE) 20:25:04 437.432
CINEMA 3 19 Dec 20:17:31 20:21:00 26° 64° (ENE) 20:24:36 145.822/145.860
BRITE-PL 19 Dec 20:19:22 20:23:31 77° 74° (ENE) 20:27:41 437.365/2234.400
STRAND 1 19 Dec 20:20:17 20:25:09 46° 293° (WNW) 20:30:00 437.568
VELOX 1 19 Dec 20:23:48 20:25:08 11° 54° (NE) 20:26:27 145.980
ZACube-1 19 Dec 20:24:00 20:26:37 16° 59° (ENE) 20:29:15 437.345
PRISM 19 Dec 20:24:50 20:27:22 16° 302° (WNW) 20:29:54 437.425
CANX-2 19 Dec 20:26:33 20:30:50 89° 255° (WSW) 20:35:11 2200.000
HO-68 19 Dec 20:28:17 20:35:29 80° 253° (WSW) 20:42:44 435.675
BEESAT 2 19 Dec 20:31:18 20:34:23 19° 28° (NNE) 20:37:27 435.950
CUBESAT XI-V 19 Dec 20:36:11 20:39:58 25° 297° (WNW) 20:43:43 437.345
UWE-3 19 Dec 20:47:54 20:51:33 29° 65° (ENE) 20:55:17 435.000/436.395/437.385
FUNcube-1 19 Dec 20:49:56 20:53:27 26° 64° (ENE) 20:57:02 145.935
GOMX 1 19 Dec 20:51:14 20:55:22 71° 258° (WSW) 20:59:34 467.674
COMPASS 1 19 Dec 20:51:22 20:55:35 73° 257° (WSW) 20:59:52 437.405
SEEDS 19 Dec 20:55:36 20:59:47 57° 260° (W) 21:04:01 437.485
CUTE 1.7 + AOD 2 19 Dec 20:57:47 21:01:54 48° 261° (W) 21:06:05 437.475
AISAT 19 Dec 21:03:42 21:07:17 25° 62° (ENE) 21:10:52 437.250
DX 1 19 Dec 21:06:03 21:10:21 64° 72° (ENE) 21:14:40 434.975-435.025
SO-50 19 Dec 21:08:40 21:12:13 23° 114° (ESE) 21:15:51 436.795
CUSAT 1 19 Dec 21:10:31 21:17:50 74° 262° (W) 21:26:17 437.405
DELFI C3 19 Dec 21:14:02 21:18:09 78° 74° (ENE) 21:22:19 145.870
CUBEBUG 1 19 Dec 21:15:02 21:17:13 14° 57° (ENE) 21:19:24 437.445
50 SAT 19 Dec 21:17:03 21:20:19 24° 64° (ENE) 21:23:37 437.505
DOVE 4 19 Dec 21:21:28 21:25:28 46° 261° (W) 21:29:33 437.250
RS-15 19 Dec 21:23:34 21:34:42 74° 237° (WSW) 21:46:20 29.354- 29.394
BEESAT 3 19 Dec 21:30:08 21:34:10 43° 43° (NE) 21:38:09 437.485
Oscar 11 19 Dec 21:30:24 21:34:42 63° 259° (WSW) 21:39:03 145.826/435.025
HUMSAT D 19 Dec 21:30:45 21:34:38 40° 68° (ENE) 21:38:34 437.325/437.525
AIST 2 19 Dec 21:31:15 21:34:58 27° 35° (NE) 21:38:39 435.215
UKube-1 19 Dec 21:38:16 21:42:34 64° 257° (WSW) 21:46:54 .
CUBEBUG 2 19 Dec 21:43:28 21:47:39 72° 258° (WSW) 21:51:58 437.445
PCSat 19 Dec 21:44:56 21:49:47 32° 39° (NE) 21:54:37 145.827
TIGRISAT 19 Dec 21:46:17 21:47:28 11° 85° (E) 21:48:38 435.000
AAUSAT CUBESAT 2 19 Dec 21:53:43 21:56:55 21° 268° (W) 22:00:09 437.432
CINEMA 3 19 Dec 21:54:16 21:58:07 36° 264° (W) 22:02:05 145.822/145.860
ESTCUBE 1 19 Dec 21:55:55 21:59:57 33° 65° (ENE) 22:04:01 437.505/2401.250
VELOX 1 19 Dec 21:56:31 22:00:56 72° 73° (ENE) 22:05:21 145.980
DANDE 19 Dec 21:57:42 22:04:34 45° 268° (W) 22:12:31 436.750
ZACube-1 19 Dec 21:58:19 22:02:29 68° 258° (WSW) 22:06:47 437.345
BRITE-PL 19 Dec 22:01:12 22:02:40 12° 273° (W) 22:04:08 437.365/2234.400
CANX-2 19 Dec 22:06:24 22:07:27 11° 274° (W) 22:08:31 2200.000
BEESAT 2 19 Dec 22:09:04 22:13:18 80° 49° (NE) 22:17:29 435.950
UNISAT 6 19 Dec 22:13:03 22:16:32 20° 91° (E) 22:20:01 437.425
HO-68 19 Dec 22:19:47 22:24:20 18° 274° (W) 22:28:54 435.675
UWE-3 19 Dec 22:24:16 22:28:03 33° 264° (W) 22:31:57 435.000/436.395/437.385
DUCHIFAT 1 19 Dec 22:25:34 22:28:09 16° 90° (E) 22:30:45 145.980
FUNcube-1 19 Dec 22:25:48 22:29:41 36° 263° (W) 22:33:40 145.935
TISAT 1 19 Dec 22:25:54 22:28:43 18° 60° (ENE) 22:31:32 437.305
SPROUT 19 Dec 22:26:11 22:28:56 17° 59° (ENE) 22:31:41 437.525
BUGSAT 1 19 Dec 22:29:42 22:31:39 13° 89° (E) 22:33:37 437.445
QB50P2 19 Dec 22:37:54 22:41:10 21° 92° (E) 22:44:26 145.880/145.840
AISAT 19 Dec 22:39:29 22:43:42 44° 261° (W) 22:47:57 437.250
ANTELSAT 19 Dec 22:44:17 22:48:41 38° 97° (E) 22:53:05 437.575/2403.000
DX 1 19 Dec 22:44:22 22:47:02 16° 270° (W) 22:49:43 434.975-435.025
POLYITAN 1 19 Dec 22:46:10 22:49:45 25° 94° (E) 22:53:19 437.675
SO-50 19 Dec 22:47:48 22:52:22 63° 314° (NW) 22:57:05 436.795
CUBEBUG 1 19 Dec 22:48:35 22:52:58 88° 255° (WSW) 22:57:21 437.445
NANOSAT C BR1 19 Dec 22:49:13 22:52:50 26° 94° (E) 22:56:27 145.865
50 SAT 19 Dec 22:51:39 22:55:23 37° 263° (W) 22:59:11 437.505
DELFI C3 19 Dec 22:52:19 22:53:59 12° 273° (W) 22:55:39 145.870
CUSAT 1 19 Dec 22:55:12 23:00:04 19° 279° (W) 23:05:19 437.405
QB50P1 19 Dec 23:03:15 23:07:12 36° 97° (E) 23:11:08 145.935-145.965
HUMSAT D 19 Dec 23:07:17 23:10:36 23° 267° (W) 23:13:59 437.325/437.525
BEESAT 3 19 Dec 23:08:36 23:12:14 29° 242° (WSW) 23:15:49 437.485
AIST 2 19 Dec 23:09:40 23:13:55 60° 235° (SW) 23:18:07 435.215
BEESAT 19 Dec 23:12:50 23:14:45 12° 53° (NE) 23:16:39 436.000
TIGRISAT 19 Dec 23:20:16 23:24:58 79° 103° (ESE) 23:29:42 435.000
M-CUBED/EXP-1 PRIME 19 Dec 23:24:32 23:27:09 15° 48° (NE) 23:29:45 437.505
PCSat 19 Dec 23:28:13 23:33:35 63° 240° (WSW) 23:38:55 145.827
POPSAT HIP 1 19 Dec 23:31:39 23:35:55 69° 103° (ESE) 23:40:11 437.405
ESTCUBE 1 19 Dec 23:32:42 23:36:49 33° 264° (W) 23:40:57 437.505/2401.250
VELOX 1 19 Dec 23:35:34 23:38:02 15° 271° (W) 23:40:30 145.980
RS-15 19 Dec 23:37:27 23:45:10 22° 261° (W) 23:53:06 29.354- 29.394
YUBILEINY 19 Dec 23:45:59 23:54:12 48° 88° (E) 00:02:24 435.215
BEESAT 2 19 Dec 23:48:36 23:51:00 15° 249° (WSW) 23:53:22 435.950
UNISAT 6 19 Dec 23:49:03 23:53:40 58° 289° (WNW) 23:58:18 437.425
TISAT 1 19 Dec 23:59:59 00:04:08 60° 259° (WSW) 00:08:19 437.305
DUCHIFAT 1 20 Dec 00:00:14 00:04:26 62° 288° (WNW) 00:08:39 145.980
SPROUT 20 Dec 00:00:19 00:04:34 66° 258° (WSW) 00:08:51 437.525
BUGSAT 1 20 Dec 00:03:36 00:07:38 69° 287° (WNW) 00:11:40 437.445
O/OREOS (USA 219) 20 Dec 00:08:16 00:10:13 13° 98° (E) 00:12:09 437.305
QB50P2 20 Dec 00:13:14 00:17:19 46° 291° (WNW) 00:21:24 145.880/145.840
ANTELSAT 20 Dec 00:21:16 00:25:23 31° 295° (WNW) 00:29:32 437.575/2403.000
POLYITAN 1 20 Dec 00:21:50 00:25:49 38° 292° (WNW) 00:29:48 437.675
SWISSCUBE 20 Dec 00:22:02 00:26:36 45° 68° (ENE) 00:31:11 437.505
ITUPSAT 1 20 Dec 00:22:12 00:26:43 42° 67° (ENE) 00:31:15 437.325
NANOSAT C BR1 20 Dec 00:24:54 00:28:48 36° 293° (WNW) 00:32:42 145.865
CUBEBUG 1 20 Dec 00:28:54 00:30:01 11° 274° (W) 00:31:08 437.445
KKS-1 20 Dec 00:30:12 00:32:19 13° 55° (NE) 00:34:26 437.445
SO-50 20 Dec 00:30:24 00:33:50 20° 337° (NNW) 00:37:21 436.795
AUBIESAT-1 20 Dec 00:31:53 00:36:26 41° 61° (ENE) 00:41:00 437.475
QB50P1 20 Dec 00:39:23 00:42:59 27° 295° (WNW) 00:46:36 145.935-145.965
BEESAT 20 Dec 00:46:59 00:51:45 70° 72° (ENE) 00:56:33 436.000
M-CUBED/EXP-1 PRIME 20 Dec 00:56:29 01:01:20 70° 67° (ENE) 01:06:15 437.505
TIGRISAT 20 Dec 00:58:12 01:01:10 17° 302° (WNW) 01:04:09 435.000
POPSAT HIP 1 20 Dec 01:08:43 01:11:21 16° 301° (WNW) 01:13:58 437.405
Oscar 19 20 Dec 01:12:35 01:16:53 25° 92° (E) 01:21:08 437.125/150
PCSat 20 Dec 01:14:59 01:15:55 10° 259° (W) 01:16:51 145.827
ITAMSAT 1 20 Dec 01:27:46 01:30:17 14° 86° (E) 01:32:48 435.822/435.867
YUBILEINY 20 Dec 01:42:44 01:51:04 47° 291° (WNW) 01:59:26 435.215
O/OREOS (USA 219) 20 Dec 01:44:28 01:48:56 84° 297° (WNW) 01:53:26 437.305
ITUPSAT 1 20 Dec 02:00:38 02:04:45 28° 266° (W) 02:08:55 437.325
SWISSCUBE 20 Dec 02:00:40 02:04:40 26° 266° (W) 02:08:41 437.505
STARS 20 Dec 02:01:59 02:06:17 59° 71° (ENE) 02:10:37 437.465
KKS-1 20 Dec 02:03:51 02:08:17 87° 74° (ENE) 02:12:46 437.445
AUBIESAT-1 20 Dec 02:07:02 02:11:24 33° 259° (W) 02:15:50 437.475
SO-50 20 Dec 02:13:48 02:16:12 14° 2° (N) 02:18:37 436.795
BEESAT 20 Dec 02:27:00 02:30:06 17° 271° (W) 02:33:14 436.000
M-CUBED/EXP-1 PRIME 20 Dec 02:33:18 02:36:46 19° 265° (W) 02:40:17 437.505
Oscar 19 20 Dec 02:51:27 02:56:31 53° 291° (WNW) 03:01:33 437.125/150
Gurwin Techsat 1B 20 Dec 02:56:04 03:01:14 49° 99° (E) 03:06:21 435.225
AIST 1 20 Dec 02:57:04 03:00:35 24° 68° (ENE) 03:04:04
ITAMSAT 1 20 Dec 03:05:21 03:10:34 86° 105° (ESE) 03:15:45 435.822/435.867
MOZHAYETS 4 20 Dec 03:09:13 03:12:29 19° 60° (ENE) 03:15:46
HORYU 2 20 Dec 03:21:35 03:25:43 34° 96° (E) 03:29:49 437.375
O/OREOS (USA 219) 20 Dec 03:26:21 03:29:04 16° 318° (NW) 03:31:48 437.305
STARS 20 Dec 03:40:13 03:43:09 18° 270° (W) 03:46:07 437.465
KKS-1 20 Dec 03:43:52 03:45:35 12° 273° (W) 03:47:18 437.445
YUBILEINY 20 Dec 03:47:08 03:50:42 13° 318° (NW) 03:54:17 435.215
AO-7 20 Dec 03:49:27 03:56:42 31° 94° (E) 04:03:53 29.400- 29.500
GONETS M04 20 Dec 03:51:05 03:54:12 12° 67° (ENE) 03:57:19
SO-50 20 Dec 03:54:44 03:58:30 22° 26° (NNE) 04:02:17 436.795
PRISM 20 Dec 04:10:14 04:12:13 13° 56° (ENE) 04:14:11 437.425
VERMONT LUNAR 20 Dec 04:25:49 04:27:36 13° 163° (SSE) 04:29:23 437.305
JAS-2 20 Dec 04:25:54 04:29:47 18° 86° (E) 04:33:26 435.910
STRAND 1 20 Dec 04:26:19 04:28:12 12° 50° (NE) 04:30:05 437.568
CUBESAT XI-V 20 Dec 04:32:08 04:33:53 12° 54° (NE) 04:35:38 437.345
Oscar 19 20 Dec 04:33:44 04:34:45 11° 311° (NW) 04:35:47 437.125/150
AIST 1 20 Dec 04:34:25 04:38:24 38° 268° (W) 04:42:20
Gurwin Techsat 1B 20 Dec 04:36:27 04:40:59 30° 298° (WNW) 04:45:31 435.225
PHONESAT 2.4 20 Dec 04:36:45 04:38:19 12° 160° (SSE) 04:39:54 2401.200-2431.200
MOZHAYETS 4 20 Dec 04:44:38 04:49:16 66° 258° (WSW) 04:53:56
ITAMSAT 1 20 Dec 04:46:03 04:49:25 18° 305° (NW) 04:52:47 435.822/435.867
HORYU 2 20 Dec 04:58:20 05:02:22 32° 295° (WNW) 05:06:22 437.375
SO-50 20 Dec 05:34:57 05:39:50 73° 48° (NE) 05:44:45 436.795
GONETS M04 20 Dec 05:40:23 05:48:55 56° 90° (E) 05:57:27
AO-7 20 Dec 05:41:50 05:50:11 73° 295° (WNW) 05:58:29 29.400- 29.500
PRISM 20 Dec 05:42:53 05:47:07 89° 255° (WSW) 05:51:23 437.425
Cubesat XI-IV 20 Dec 05:56:06 06:00:22 24° 92° (E) 06:04:36 437.490
STRAND 1 20 Dec 06:01:23 06:06:25 62° 70° (ENE) 06:11:29 437.568
VERMONT LUNAR 20 Dec 06:02:36 06:05:10 19° 180° (S) 06:07:44 437.305
CUBESAT XI-V 20 Dec 06:05:52 06:10:31 72° 73° (ENE) 06:15:11 437.345
JAS-2 20 Dec 06:09:51 06:15:44 74° 288° (WNW) 06:21:02 435.910
PHONESAT 2.4 20 Dec 06:13:33 06:16:13 19° 177° (S) 06:18:54 2401.200-2431.200
CUTE-I 20 Dec 06:29:05 06:34:09 43° 98° (E) 06:39:11 437.470
SO-50 20 Dec 07:16:20 07:19:57 21° 247° (WSW) 07:23:34 436.795
PRISM 20 Dec 07:22:22 07:23:18 11° 273° (W) 07:24:14 437.425
AO-7 20 Dec 07:35:34 07:41:41 23° 318° (NW) 07:47:49 29.400- 29.500
Cubesat XI-IV 20 Dec 07:35:37 07:40:50 58° 291° (WNW) 07:46:02 437.490
GONETS M04 20 Dec 07:37:50 07:46:04 42° 293° (WNW) 07:54:21
VERMONT LUNAR 20 Dec 07:40:56 07:42:44 13° 197° (SSW) 07:44:32 437.305
STRAND 1 20 Dec 07:42:14 07:46:03 21° 269° (W) 07:49:53 437.568
CUBESAT XI-V 20 Dec 07:45:40 07:48:29 16° 272° (W) 07:51:18 437.345
PHONESAT 2.4 20 Dec 07:51:59 07:54:11 15° 194° (SSW) 07:56:22 2401.200-2431.200
HO-68 20 Dec 07:52:57 07:57:00 16° 85° (E) 08:01:01 435.675
JAS-2 20 Dec 07:56:31 07:59:44 15° 312° (NW) 08:02:48 435.910
CUTE-I 20 Dec 08:09:24 08:14:07 33° 297° (WNW) 08:18:49 437.470
CANX-2 20 Dec 08:09:40 08:11:32 13° 87° (E) 08:13:24 2200.000
BRITE-PL 20 Dec 08:19:32 08:22:46 18° 91° (E) 08:26:09 437.365/2234.400
COMPASS 1 20 Dec 08:32:28 08:34:48 14° 88° (E) 08:37:08 437.405
O/OREOS (USA 219) 20 Dec 08:33:19 08:34:52 12° 37° (NE) 08:36:26 437.305
SEEDS 20 Dec 08:36:49 08:39:52 19° 90° (E) 08:42:53 437.485
CUTE 1.7 + AOD 2 20 Dec 08:39:22 08:42:47 22° 92° (E) 08:46:11 437.475
CUSAT 1 20 Dec 08:47:41 08:49:31 13° 76° (ENE) 08:51:34 437.405
GOMX 1 20 Dec 08:48:10 08:52:02 25° 93° (E) 08:56:06 467.674
TIGRISAT 20 Dec 08:48:52 08:51:41 17° 58° (ENE) 08:54:32 435.000
POPSAT HIP 1 20 Dec 08:55:56 08:57:51 13° 57° (ENE) 08:59:45 437.405
MaSat-1 20 Dec 09:05:00 09:06:48 20° 114° (ESE) 09:08:34 437.345
Oscar 11 20 Dec 09:14:23 09:17:25 18° 90° (E) 09:20:25 145.826/435.025
DOVE 4 20 Dec 09:15:26 09:19:42 33° 96° (E) 09:24:11 437.250
UNISAT 6 20 Dec 09:16:33 09:20:20 29° 64° (ENE) 09:24:13 437.425
Cubesat XI-IV 20 Dec 09:18:03 09:19:52 12° 311° (NW) 09:21:41 437.490
DUCHIFAT 1 20 Dec 09:22:37 09:25:50 22° 62° (ENE) 09:29:04 145.980
UKube-1 20 Dec 09:22:57 09:25:36 16° 90° (E) 09:28:15 .
BUGSAT 1 20 Dec 09:24:12 09:27:00 18° 61° (ENE) 09:29:48 437.445
CUBEBUG 2 20 Dec 09:30:52 09:34:12 19° 91° (E) 09:37:33 437.445
AAUSAT CUBESAT 2 20 Dec 09:31:44 09:35:52 47° 99° (E) 09:39:58 437.432
DANDE 20 Dec 09:35:14 09:38:29 28° 86° (E) 09:42:38 436.750
QB50P2 20 Dec 09:35:20 09:38:58 28° 65° (ENE) 09:42:36 145.880/145.840
HO-68 20 Dec 09:38:47 09:45:58 74° 105° (ESE) 09:53:06 435.675
ZACube-1 20 Dec 09:43:28 09:46:38 19° 90° (E) 09:49:50 437.345
GONETS M04 20 Dec 09:43:31 09:46:05 11° 321° (NW) 09:48:39
CANX-2 20 Dec 09:43:43 09:48:04 81° 286° (WNW) 09:52:23 2200.000
POLYITAN 1 20 Dec 09:43:48 09:47:36 34° 67° (ENE) 09:51:26 437.675
CINEMA 3 20 Dec 09:44:00 09:48:24 38° 97° (E) 09:52:56 145.822/145.860
NANOSAT C BR1 20 Dec 09:46:22 09:50:11 35° 67° (ENE) 09:54:03 145.865
ANTELSAT 20 Dec 09:47:48 09:52:05 54° 70° (ENE) 09:56:31 437.575/2403.000
YUBILEINY 20 Dec 09:50:17 09:57:48 31° 61° (ENE) 10:05:16 435.215
BRITE-PL 20 Dec 09:57:06 10:01:38 63° 287° (WNW) 10:06:32 437.365/2234.400
QB50P1 20 Dec 10:00:26 10:04:29 48° 70° (ENE) 10:08:33 145.935-145.965
COMPASS 1 20 Dec 10:06:45 10:11:01 69° 287° (WNW) 10:15:14 437.405
UWE-3 20 Dec 10:09:19 10:13:34 37° 97° (E) 10:17:52 435.000/436.395/437.385
FUNcube-1 20 Dec 10:09:44 10:13:47 31° 95° (E) 10:17:51 145.935
O/OREOS (USA 219) 20 Dec 10:10:55 10:15:21 54° 59° (ENE) 10:19:47 437.305
SEEDS 20 Dec 10:11:49 10:16:01 53° 289° (WNW) 10:20:11 437.485
CUTE 1.7 + AOD 2 20 Dec 10:14:48 10:18:55 44° 291° (WNW) 10:23:01 437.475
TIGRISAT 20 Dec 10:23:32 10:27:54 71° 258° (WSW) 10:32:24 435.000
DELFI C3 20 Dec 10:25:39 10:29:48 76° 103° (ESE) 10:33:55 145.870
GOMX 1 20 Dec 10:25:54 10:30:21 47° 290° (WNW) 10:35:06 467.674
DX 1 20 Dec 10:26:20 10:30:40 65° 103° (ESE) 10:34:59 434.975-435.025
AISAT 20 Dec 10:26:27 10:30:10 26° 94° (E) 10:33:53 437.250
CUSAT 1 20 Dec 10:27:31 10:31:23 73° 285° (WNW) 10:36:41 437.405
50 SAT 20 Dec 10:27:49 10:31:08 23° 93° (E) 10:34:26 437.505
POPSAT HIP 1 20 Dec 10:28:54 10:33:07 89° 256° (WSW) 10:37:22 437.405
CUBEBUG 1 20 Dec 10:35:08 10:37:06 13° 88° (E) 10:39:03 437.445
MaSat-1 20 Dec 10:38:49 10:40:08 14° 312° (NW) 10:41:27 437.345
HUMSAT D 20 Dec 10:46:29 10:50:37 43° 98° (E) 10:54:45 437.325/437.525
Oscar 11 20 Dec 10:49:39 10:53:57 56° 289° (WNW) 10:58:12 145.826/435.025
UNISAT 6 20 Dec 10:52:58 10:57:02 37° 263° (W) 11:01:14 437.425
DOVE 4 20 Dec 10:53:14 10:57:29 36° 293° (WNW) 11:01:58 437.250
DUCHIFAT 1 20 Dec 10:57:24 11:01:26 46° 261° (W) 11:05:31 145.980
UKube-1 20 Dec 10:57:54 11:02:12 64° 288° (WNW) 11:06:29 .
BUGSAT 1 20 Dec 10:58:10 11:02:10 54° 259° (W) 11:06:10 437.445
Oscar 19 20 Dec 10:59:02 11:00:16 11° 49° (NE) 11:01:31 437.125/150
CUBEBUG 2 20 Dec 11:06:43 11:11:14 59° 288° (WNW) 11:15:52 437.445
AAUSAT CUBESAT 2 20 Dec 11:08:01 11:11:16 22° 298° (WNW) 11:14:29 437.432
QB50P2 20 Dec 11:10:58 11:14:49 34° 263° (W) 11:18:41 145.880/145.840
DANDE 20 Dec 11:18:25 11:21:52 30° 297° (WNW) 11:26:23 436.750
ZACube-1 20 Dec 11:18:55 11:23:22 59° 288° (WNW) 11:27:52 437.345
VELOX 1 20 Dec 11:19:31 11:23:58 80° 104° (ESE) 11:28:24 145.980
POLYITAN 1 20 Dec 11:19:57 11:23:36 28° 265° (W) 11:27:16 437.675
ESTCUBE 1 20 Dec 11:20:51 11:25:03 37° 97° (E) 11:29:13 437.505/2401.250
CINEMA 3 20 Dec 11:21:25 11:25:31 31° 294° (WNW) 11:29:46 145.822/145.860
CANX-2 20 Dec 11:21:39 11:23:17 12° 304° (NW) 11:24:55 2200.000
NANOSAT C BR1 20 Dec 11:22:34 11:26:09 27° 265° (W) 11:29:45 145.865
ANTELSAT 20 Dec 11:26:05 11:29:15 19° 270° (W) 11:32:30 437.575/2403.000
HO-68 20 Dec 11:27:10 11:33:08 30° 306° (NW) 11:39:05 435.675
QB50P1 20 Dec 11:37:33 11:40:39 20° 268° (W) 11:43:46 145.935-145.965
BRITE-PL 20 Dec 11:38:38 11:39:25 10° 305° (NW) 11:40:11 437.365/2234.400
TISAT 1 20 Dec 11:41:43 11:44:24 16° 90° (E) 11:47:03 437.305
SPROUT 20 Dec 11:43:52 11:46:38 17° 90° (E) 11:49:23 437.525
COMPASS 1 20 Dec 11:45:29 11:45:56 10° 306° (NW) 11:46:23 437.405
UWE-3 20 Dec 11:46:02 11:50:02 31° 294° (WNW) 11:54:05 435.000/436.395/437.385
FUNcube-1 20 Dec 11:46:04 11:50:08 35° 293° (WNW) 11:54:16 145.935
YUBILEINY 20 Dec 11:46:49 11:55:29 74° 265° (W) 12:04:08 435.215
O/OREOS (USA 219) 20 Dec 11:51:03 11:54:24 21° 258° (WSW) 11:57:45 437.305
RS-15 20 Dec 11:52:22 12:02:33 48° 113° (ESE) 12:12:46 29.354- 29.394
DELFI C3 20 Dec 12:02:18 12:04:33 14° 302° (WNW) 12:06:46 145.870
50 SAT 20 Dec 12:02:37 12:06:31 41° 291° (WNW) 12:10:25 437.505
AISAT 20 Dec 12:02:47 12:06:56 40° 292° (WNW) 12:11:05 437.250
DX 1 20 Dec 12:03:35 12:06:28 18° 301° (WNW) 12:09:21 434.975-435.025
POPSAT HIP 1 20 Dec 12:08:59 12:09:41 10° 274° (W) 12:10:24 437.405
CUBEBUG 1 20 Dec 12:09:42 12:14:03 79° 286° (WNW) 12:18:22 437.445
CUSAT 1 20 Dec 12:14:26 12:16:03 12° 313° (NW) 12:17:50 437.405
HUMSAT D 20 Dec 12:22:43 12:26:13 24° 296° (WNW) 12:29:43 437.325/437.525
Oscar 19 20 Dec 12:33:31 12:38:32 55° 69° (ENE) 12:43:36 437.125/150
Gurwin Techsat 1B 20 Dec 12:43:37 12:47:29 21° 57° (ENE) 12:51:22 435.225
BEESAT 20 Dec 12:44:48 12:47:01 13° 87° (E) 12:49:14 436.000
ITAMSAT 1 20 Dec 12:49:12 12:53:47 33° 63° (ENE) 12:58:23 435.822/435.867
VELOX 1 20 Dec 12:57:26 12:59:59 15° 303° (WNW) 13:02:32 145.980
ESTCUBE 1 20 Dec 12:57:57 13:01:50 29° 296° (WNW) 13:05:41 437.505/2401.250
AO-7 20 Dec 13:04:12 13:09:45 20° 39° (NE) 13:15:19 29.400- 29.500
BEESAT 3 20 Dec 13:07:49 13:10:41 18° 113° (ESE) 13:13:34 437.485
TISAT 1 20 Dec 13:16:27 13:20:37 60° 288° (WNW) 13:24:47 437.305
SPROUT 20 Dec 13:18:52 13:23:07 60° 288° (WNW) 13:27:21 437.525
YUBILEINY 20 Dec 13:45:31 13:50:43 18° 288° (WNW) 13:55:56 435.215
BEESAT 2 20 Dec 13:46:17 13:50:05 37° 120° (ESE) 13:53:58 435.950
AUBIESAT-1 20 Dec 13:46:44 13:49:14 15° 93° (E) 13:51:38 437.475
CUBEBUG 1 20 Dec 13:48:09 13:49:42 12° 305° (NW) 13:51:15 437.445
KKS-1 20 Dec 13:52:35 13:54:35 13° 87° (E) 13:56:35 437.445
SWISSCUBE 20 Dec 13:55:42 14:00:26 60° 101° (ESE) 14:05:08 437.505
ITUPSAT 1 20 Dec 13:56:04 14:00:47 55° 101° (E) 14:05:27 437.325
RS-15 20 Dec 14:03:42 14:14:33 66° 319° (NW) 14:25:37 29.354- 29.394
M-CUBED/EXP-1 PRIME 20 Dec 14:11:15 14:15:06 28° 99° (E) 14:18:40 437.505
PCSat 20 Dec 14:13:57 14:19:09 50° 117° (ESE) 14:24:23 145.827
Oscar 19 20 Dec 14:14:05 14:18:13 24° 268° (W) 14:22:23 437.125/150
BEESAT 20 Dec 14:20:45 14:25:33 88° 287° (WNW) 14:30:19 436.000
Gurwin Techsat 1B 20 Dec 14:21:38 14:26:56 74° 257° (WSW) 14:32:17 435.225
HORYU 2 20 Dec 14:24:12 14:28:33 53° 70° (ENE) 14:32:57 437.375
ISS 20 Dec 14:28:17 14:31:11 28° 146° (SE) 14:34:04 145.825
ITAMSAT 1 20 Dec 14:28:18 14:33:11 41° 262° (W) 14:38:06 435.822/435.867
JAS-2 20 Dec 14:42:17 14:47:24 21° 54° (NE) 14:52:12 435.910
BEESAT 3 20 Dec 14:44:20 14:48:26 65° 313° (NW) 14:52:37 437.485
AIST 2 20 Dec 14:49:55 14:54:09 71° 126° (SE) 14:58:28 435.215
AO-7 20 Dec 14:52:51 15:00:59 61° 62° (ENE) 15:09:11 29.400- 29.500
AUBIESAT-1 20 Dec 15:20:19 15:24:48 70° 293° (WNW) 15:28:52 437.475
STARS 20 Dec 15:24:00 15:28:25 65° 102° (ESE) 15:32:50 437.465
BEESAT 2 20 Dec 15:24:30 15:28:22 36° 320° (NW) 15:32:17 435.950
KKS-1 20 Dec 15:27:20 15:31:50 83° 286° (WNW) 15:36:19 437.445
AIST 1 20 Dec 15:33:49 15:35:19 12° 81° (E) 15:36:48
SWISSCUBE 20 Dec 15:34:19 15:37:55 22° 301° (WNW) 15:41:29 437.505
ITUPSAT 1 20 Dec 15:34:37 15:38:21 23° 300° (WNW) 15:42:04 437.325
GONETS M04 20 Dec 15:45:06 15:53:02 36° 64° (ENE) 16:00:52
M-CUBED/EXP-1 PRIME 20 Dec 15:46:02 15:50:14 38° 300° (WNW) 15:54:06 437.505
Cubesat XI-IV 20 Dec 15:46:31 15:48:25 12° 49° (NE) 15:50:20 437.490
PCSat 20 Dec 15:57:43 16:02:44 37° 318° (NW) 16:07:48 145.827
BEESAT 20 Dec 16:00:03 16:02:43 15° 305° (NW) 16:05:23 436.000
HORYU 2 20 Dec 16:02:15 16:05:33 20° 268° (W) 16:08:53 437.375
ISS 20 Dec 16:04:15 16:07:33 81° 343° (NNW) 16:10:52 145.825
Gurwin Techsat 1B 20 Dec 16:06:05 16:07:51 12° 276° (W) 16:09:37 435.225
CUTE-I 20 Dec 16:17:34 16:21:17 20° 56° (NE) 16:25:01 437.470
RS-15 20 Dec 16:19:19 16:29:18 38° 350° (N) 16:39:35 29.354- 29.394
JAS-2 20 Dec 16:24:05 16:31:39 80° 72° (ENE) 16:38:29 435.910
BEESAT 3 20 Dec 16:24:37 16:27:25 17° 334° (NNW) 16:30:13 437.485
AIST 2 20 Dec 16:29:39 16:33:12 24° 327° (NNW) 16:36:47 435.215
MOZHAYETS 4 20 Dec 16:36:09 16:39:49 23° 92° (E) 16:43:27
AO-7 20 Dec 16:46:36 16:54:11 38° 263° (W) 17:01:52 29.400- 29.500
AUBIESAT-1 20 Dec 16:57:01 16:58:52 12° 314° (NW) 17:00:40 437.475
MaSat-1 20 Dec 16:59:16 16:59:52 11° 46° (NE) 17:00:28 437.345
STARS 20 Dec 17:01:27 17:04:28 18° 301° (WNW) 17:07:29 437.465
KKS-1 20 Dec 17:05:45 17:07:47 13° 305° (NW) 17:09:50 437.445
BEESAT 2 20 Dec 17:05:49 17:07:48 13° 343° (NNW) 17:09:47 435.950
AIST 1 20 Dec 17:07:54 17:12:18 84° 281° (W) 17:16:41
Cubesat XI-IV 20 Dec 17:22:15 17:27:28 59° 69° (ENE) 17:32:43 437.490
ISS 20 Dec 17:41:03 17:44:19 59° 4° (N) 17:47:35 145.825
GONETS M04 20 Dec 17:41:50 17:50:29 65° 267° (W) 17:59:01
PCSat 20 Dec 17:44:41 17:47:46 15° 343° (NNW) 17:50:50 145.827
CUTE-I 20 Dec 17:55:27 18:00:46 80° 256° (WSW) 18:06:08 437.470
CUBESAT XI-V 20 Dec 18:00:01 18:02:17 13° 87° (E) 18:04:32 437.345
STRAND 1 20 Dec 18:08:55 18:11:46 15° 87° (E) 18:14:36 437.568
JAS-2 20 Dec 18:11:18 18:17:15 25° 270° (W) 18:22:49 435.910
AIST 2 20 Dec 18:11:52 18:13:19 11° 351° (N) 18:14:46 435.215
MOZHAYETS 4 20 Dec 18:12:50 18:17:19 49° 290° (WNW) 18:21:45
HO-68 20 Dec 18:26:30 18:31:48 23° 49° (NE) 18:37:06 435.675
DANDE 20 Dec 18:27:21 18:31:15 15° 52° (NE) 18:35:29 436.750
MaSat-1 20 Dec 18:31:07 18:33:20 37° 243° (WSW) 18:35:40 437.345
RS-15 20 Dec 18:34:29 18:44:59 45° 24° (NNE) 18:55:52 29.354- 29.394
BEESAT 2 20 Dec 18:47:01 18:47:53 11° 7° (N) 18:48:44 435.950
AIST 1 20 Dec 18:49:19 18:50:43 11° 300° (WNW) 18:52:06
PRISM 20 Dec 18:57:16 19:01:28 84° 104° (ESE) 19:05:36 437.425
Cubesat XI-IV 20 Dec 19:03:44 19:07:57 24° 268° (W) 19:12:12 437.490
CANX-2 20 Dec 19:06:57 19:09:44 17° 60° (ENE) 19:12:33 2200.000
CUSAT 1 20 Dec 19:17:25 19:23:52 32° 64° (ENE) 19:31:06 437.405
ISS 20 Dec 19:17:42 19:20:58 64° 204° (SSW) 19:24:13 145.825
COMPASS 1 20 Dec 19:28:24 19:31:23 19° 61° (ENE) 19:34:22 437.405
PCSat 20 Dec 19:31:06 19:33:35 13° 9° (N) 19:36:04 145.827
SEEDS 20 Dec 19:33:29 19:36:54 24° 63° (ENE) 19:40:20 437.485
BRITE-PL 20 Dec 19:35:21 19:38:55 29° 66° (ENE) 19:42:32 437.365/2234.400
CUBESAT XI-V 20 Dec 19:35:43 19:40:21 82° 285° (WNW) 19:44:57 437.345
CUTE 1.7 + AOD 2 20 Dec 19:36:41 19:40:21 29° 65° (ENE) 19:44:03 437.475
CUTE-I 20 Dec 19:39:25 19:41:43 13° 275° (W) 19:44:01 437.470
GONETS M04 20 Dec 19:41:07 19:45:26 15° 290° (WNW) 19:49:45
BEESAT 3 20 Dec 19:44:44 19:47:13 15° 22° (NNE) 19:49:41 437.485
DELFI C3 20 Dec 19:46:17 19:47:47 12° 56° (ENE) 19:49:17 145.870
